TimeCST,TemperatureF,Dew PointF,Humidity,Sea Level PressureIn,VisibilityMPH,Wind Direction,Wind SpeedMPH,Gust SpeedMPH,PrecipitationIn,Events,Conditions,WindDirDegrees,DateUTC
12:15 AM,37.4,28.4,70,30.16,10.0,NNW,4.6,-,N/A,,Overcast,330,2013-03-01 06:15:00
12:35 AM,37.4,28.4,70,30.16,10.0,NNW,3.5,-,N/A,,Overcast,340,2013-03-01 06:35:00
12:55 AM,37.4,28.4,70,30.17,10.0,NNW,3.5,-,N/A,,Overcast,340,2013-03-01 06:55:00
1:15 AM,37.4,28.4,70,30.17,10.0,NW,6.9,-,N/A,,Overcast,310,2013-03-01 07:15:00
1:35 AM,37.4,28.4,70,30.17,10.0,NNW,9.2,-,N/A,,Overcast,330,2013-03-01 07:35:00
1:55 AM,37.4,28.4,70,30.16,10.0,NW,8.1,-,N/A,,Overcast,320,2013-03-01 07:55:00
2:15 AM,37.4,28.4,70,30.15,10.0,NW,10.4,-,N/A,,Overcast,320,2013-03-01 08:15:00
2:35 AM,37.4,28.4,70,30.14,10.0,NNW,10.4,-,N/A,,Overcast,330,2013-03-01 08:35:00
2:55 AM,35.6,28.4,75,30.14,10.0,NW,11.5,16.1,N/A,,Overcast,320,2013-03-01 08:55:00
3:15 AM,35.6,28.4,75,30.14,10.0,NW,9.2,-,N/A,,Overcast,320,2013-03-01 09:15:00
3:35 AM,35.6,28.4,75,30.14,10.0,NNW,8.1,-,N/A,,Overcast,330,2013-03-01 09:35:00
3:55 AM,35.6,28.4,75,30.14,10.0,NNW,10.4,-,N/A,,Overcast,330,2013-03-01 09:55:00
4:15 AM,35.6,26.6,70,30.14,10.0,NNW,6.9,-,N/A,,Scattered Clouds,330,2013-03-01 10:15:00
4:35 AM,35.6,26.6,70,30.14,10.0,NNW,10.4,-,N/A,,Scattered Clouds,340,2013-03-01 10:35:00
4:55 AM,35.6,26.6,70,30.15,10.0,NNW,6.9,-,N/A,,Clear,340,2013-03-01 10:55:00
5:15 AM,35.6,26.6,70,30.15,10.0,NNW,5.8,-,N/A,,Clear,330,2013-03-01 11:15:00
5:55 AM,35.6,26.6,70,30.16,10.0,NNW,6.9,16.1,N/A,,Scattered Clouds,330,2013-03-01 11:55:00
6:15 AM,33.8,26.6,75,30.16,10.0,NNW,8.1,-,N/A,,Scattered Clouds,330,2013-03-01 12:15:00
6:35 AM,33.8,26.6,75,30.16,10.0,NNW,9.2,-,N/A,,Scattered Clouds,330,2013-03-01 12:35:00
6:55 AM,35.6,26.6,70,30.17,10.0,NW,8.1,-,N/A,,Mostly Cloudy,310,2013-03-01 12:55:00
7:15 AM,35.6,26.6,70,30.18,10.0,NW,13.8,19.6,N/A,,Overcast,310,2013-03-01 13:15:00
7:35 AM,35.6,24.8,65,30.19,10.0,WNW,11.5,19.6,N/A,,Overcast,300,2013-03-01 13:35:00
7:55 AM,35.6,24.8,65,30.20,10.0,WNW,8.1,-,N/A,,Overcast,300,2013-03-01 13:55:00
8:15 AM,35.6,24.8,65,30.21,10.0,NW,6.9,-,N/A,,Overcast,310,2013-03-01 14:15:00
8:35 AM,35.6,24.8,65,30.21,10.0,WNW,4.6,-,N/A,,Overcast,300,2013-03-01 14:35:00
8:55 AM,35.6,24.8,65,30.21,10.0,NNW,8.1,-,N/A,,Mostly Cloudy,330,2013-03-01 14:55:00
9:15 AM,37.4,24.8,60,30.21,10.0,NW,9.2,-,N/A,,Scattered Clouds,310,2013-03-01 15:15:00
9:35 AM,37.4,24.8,60,30.21,10.0,NW,15.0,20.7,N/A,,Mostly Cloudy,320,2013-03-01 15:35:00
10:15 AM,37.4,24.8,60,30.21,10.0,NW,9.2,16.1,N/A,,Mostly Cloudy,320,2013-03-01 16:15:00
10:35 AM,37.4,26.6,65,30.21,10.0,WNW,8.1,-,N/A,,Overcast,290,2013-03-01 16:35:00
10:55 AM,39.2,26.6,61,30.21,10.0,NNW,8.1,-,N/A,,Overcast,330,2013-03-01 16:55:00
11:15 AM,41.0,24.8,53,30.21,10.0,NNW,11.5,-,N/A,,Overcast,330,2013-03-01 17:15:00
11:35 AM,41.0,24.8,53,30.21,10.0,WNW,10.4,17.3,N/A,,Mostly Cloudy,290,2013-03-01 17:35:00
11:55 AM,41.0,24.8,53,30.20,10.0,NW,5.8,16.1,N/A,,Scattered Clouds,310,2013-03-01 17:55:00
12:15 PM,42.8,26.6,53,30.20,10.0,NNW,9.2,-,N/A,,Mostly Cloudy,330,2013-03-01 18:15:00
12:35 PM,42.8,24.8,49,30.19,10.0,NNW,6.9,-,N/A,,Scattered Clouds,330,2013-03-01 18:35:00
12:55 PM,44.6,24.8,46,30.18,10.0,NW,13.8,19.6,N/A,,Scattered Clouds,320,2013-03-01 18:55:00
1:15 PM,44.6,24.8,46,30.17,10.0,NW,6.9,19.6,N/A,,Scattered Clouds,310,2013-03-01 19:15:00
1:35 PM,46.4,26.6,46,30.16,10.0,NW,13.8,17.3,N/A,,Scattered Clouds,310,2013-03-01 19:35:00
1:55 PM,46.4,24.8,43,30.15,10.0,NW,9.2,17.3,N/A,,Scattered Clouds,310,2013-03-01 19:55:00
2:15 PM,46.4,24.8,43,30.14,10.0,NW,12.7,18.4,N/A,,Clear,310,2013-03-01 20:15:00
2:35 PM,46.4,23.0,40,30.14,10.0,WNW,11.5,17.3,N/A,,Scattered Clouds,300,2013-03-01 20:35:00
2:55 PM,46.4,24.8,43,30.14,10.0,NNW,10.4,-,N/A,,Mostly Cloudy,330,2013-03-01 20:55:00
3:15 PM,46.4,24.8,43,30.14,10.0,NW,11.5,16.1,N/A,,Mostly Cloudy,320,2013-03-01 21:15:00
3:35 PM,46.4,26.6,46,30.14,10.0,West,16.1,20.7,N/A,,Mostly Cloudy,280,2013-03-01 21:35:00
3:55 PM,46.4,23.0,40,30.14,10.0,WNW,17.3,25.3,N/A,,Scattered Clouds,290,2013-03-01 21:55:00
4:15 PM,46.4,24.8,43,30.14,10.0,WNW,13.8,21.9,N/A,,Scattered Clouds,290,2013-03-01 22:15:00
4:35 PM,44.6,24.8,46,30.15,10.0,NW,13.8,20.7,N/A,,Mostly Cloudy,320,2013-03-01 22:35:00
4:55 PM,44.6,26.6,49,30.16,10.0,NNW,8.1,16.1,N/A,,Mostly Cloudy,340,2013-03-01 22:55:00
5:15 PM,42.8,24.8,49,30.16,10.0,NNW,11.5,16.1,N/A,,Scattered Clouds,340,2013-03-01 23:15:00
5:55 PM,41.0,24.8,53,30.17,10.0,NNW,10.4,17.3,N/A,,Clear,340,2013-03-01 23:55:00
6:15 PM,41.0,24.8,53,30.18,10.0,NNW,11.5,18.4,N/A,,Scattered Clouds,330,2013-03-02 00:15:00
6:35 PM,39.2,24.8,56,30.18,10.0,NNW,10.4,16.1,N/A,,Mostly Cloudy,330,2013-03-02 00:35:00
6:55 PM,37.4,24.8,60,30.20,10.0,NNW,10.4,-,N/A,,Scattered Clouds,330,2013-03-02 00:55:00
7:15 PM,37.4,24.8,60,30.20,10.0,NW,12.7,19.6,N/A,,Mostly Cloudy,320,2013-03-02 01:15:00
7:35 PM,37.4,24.8,60,30.21,10.0,NNW,9.2,-,N/A,,Overcast,330,2013-03-02 01:35:00
7:55 PM,37.4,23.0,56,30.21,10.0,NNW,8.1,-,N/A,,Overcast,340,2013-03-02 01:55:00
8:15 PM,35.6,23.0,60,30.22,10.0,NNW,8.1,-,N/A,,Overcast,330,2013-03-02 02:15:00
8:35 PM,35.6,21.2,56,30.22,10.0,NNW,9.2,18.4,N/A,,Overcast,340,2013-03-02 02:35:00
8:55 PM,35.6,21.2,56,30.22,10.0,NNW,11.5,19.6,N/A,,Overcast,330,2013-03-02 02:55:00
9:15 PM,35.6,21.2,56,30.23,10.0,NW,8.1,-,N/A,,Overcast,320,2013-03-02 03:15:00
9:35 PM,35.6,19.4,52,30.23,10.0,NNW,4.6,-,N/A,,Overcast,330,2013-03-02 03:35:00
9:55 PM,33.8,19.4,56,30.24,10.0,North,6.9,-,N/A,,Overcast,10,2013-03-02 03:55:00
10:15 PM,33.8,21.2,60,30.24,10.0,North,12.7,16.1,N/A,,Overcast,360,2013-03-02 04:15:00
10:35 PM,33.8,19.4,56,30.24,10.0,North,10.4,18.4,N/A,,Overcast,350,2013-03-02 04:35:00
10:55 PM,33.8,19.4,56,30.24,10.0,North,8.1,-,N/A,,Overcast,350,2013-03-02 04:55:00
11:15 PM,33.8,19.4,56,30.23,10.0,NNW,10.4,16.1,N/A,,Overcast,330,2013-03-02 05:15:00
11:35 PM,33.8,19.4,56,30.23,10.0,NNW,13.8,18.4,N/A,,Overcast,330,2013-03-02 05:35:00
11:55 PM,33.8,19.4,56,30.23,10.0,NNW,8.1,18.4,N/A,,Overcast,340,2013-03-02 05:55:00